Find Ningxia-1 02 xing

NORAD ID: 44780 Int'l Des: 2019-076 Owner: NINGX/CASC Country: CN operational
LEOCIRCULAR

Live Position

Loading 3D Globe...

About Ningxia-1 02 xing

Description loading...

Upcoming Passes

Passes for default location (London). Set your location on the main map for personalized predictions.

Altitude History

Loading altitude history...

Two-Line Element Set

1 44780U 19076B 26105.53019731 -.00000114 00000-0 10213-4 0 9997
2 44780 45.0073 100.1813 0007646 221.1853 138.8405 14.02047159329065
Epoch: Apr 15, 2026 • Age: 12 hours

Current Status

Altitude 897.7 km
Velocity 7.40 km/s
Sub-Earth Point -42.99°S, 179.28°W
Launch Date Nov 13, 2019
Age 6.4 years
Type other

Technical Details

Classification Payload
Mass 100.00 kg
Dry Mass 100.00 kg
Total Mass 100.00 kg
Length 0.50 m
Diameter 0.20 m
Span 1.00 m
Shape Box + 2 pan
Manufacturer DFHZ
Bus Type NX-1
Phase Status In Orbit
Owner/State NINGX/CASC/CN

Most Searched